Location: Lake Arresoe
(56.0000°N, 12.5000°E)
Time: 08:01:14
(UTC+02:00)

Okean 3 - Pass Details

Date: 19 August 2020
Orbit: 577 x 600 km, 82.5° (Epoch: 21 September)

Event Time Altitude Azimuth Distance (km) Brightness Sun altitude
Rises 21:16:36 0° 352° (N) 2,861 7.6 -5.8°
Reaches altitude 10° 21:19:01 10° 2° (N) 1,956 6.6 -6.1°
Maximum altitude 21:22:56 33° 67° (ENE) 1,031 4.4 -6.5°
Drops below altitude 10° 21:26:50 10° 132° (SE) 1,945 5.4 -7.0°
Enters shadow 21:27:09 - 134° (SE) 2,059 5.6 -7.0°
